TimeCDT,TemperatureF,Dew PointF,Humidity,Sea Level PressureIn,VisibilityMPH,Wind Direction,Wind SpeedMPH,Gust SpeedMPH,PrecipitationIn,Events,Conditions,WindDirDegrees,DateUTC
12:15 AM,64.0,56.5,76,30.05,10.0,SE,3.5,-,N/A,,Clear,140,2012-10-04 05:15:00
12:35 AM,63.9,56.7,77,30.05,10.0,Calm,Calm,-,N/A,,Clear,0,2012-10-04 05:35:00
12:55 AM,63.5,56.7,78,30.05,10.0,SE,3.5,-,N/A,,Clear,140,2012-10-04 05:55:00
1:15 AM,62.6,56.7,81,30.05,10.0,SE,3.5,-,N/A,,Clear,140,2012-10-04 06:15:00
1:35 AM,62.4,56.8,82,30.05,10.0,Calm,Calm,-,N/A,,Clear,0,2012-10-04 06:35:00
1:55 AM,62.1,57.2,84,30.05,10.0,Calm,Calm,-,N/A,,Clear,0,2012-10-04 06:55:00
2:15 AM,61.5,57.4,86,30.05,10.0,Calm,Calm,-,N/A,,Clear,0,2012-10-04 07:15:00
2:35 AM,61.5,57.6,87,30.06,10.0,Calm,Calm,-,N/A,,Clear,0,2012-10-04 07:35:00
2:55 AM,61.3,57.7,88,30.06,10.0,Calm,Calm,-,N/A,,Clear,0,2012-10-04 07:55:00
3:15 AM,61.0,58.1,90,30.06,10.0,Calm,Calm,-,N/A,,Clear,0,2012-10-04 08:15:00
3:35 AM,60.4,57.9,91,30.06,10.0,Calm,Calm,-,N/A,,Clear,0,2012-10-04 08:35:00
3:55 AM,60.4,57.9,91,30.06,10.0,Calm,Calm,-,N/A,,Clear,0,2012-10-04 08:55:00
4:15 AM,60.1,58.1,93,30.07,10.0,Calm,Calm,-,N/A,,Clear,0,2012-10-04 09:15:00
4:35 AM,59.4,58.1,96,30.07,10.0,Calm,Calm,-,N/A,,Clear,0,2012-10-04 09:35:00
4:55 AM,59.2,57.7,95,30.08,10.0,Calm,Calm,-,N/A,,Clear,0,2012-10-04 09:55:00
5:15 AM,59.4,57.9,95,30.09,10.0,Calm,Calm,-,N/A,,Clear,0,2012-10-04 10:15:00
5:35 AM,59.4,58.1,96,30.09,10.0,Calm,Calm,-,N/A,,Clear,0,2012-10-04 10:35:00
5:55 AM,59.2,57.7,95,30.09,10.0,Calm,Calm,-,N/A,,Clear,0,2012-10-04 10:55:00
6:15 AM,59.2,57.7,95,30.10,10.0,Calm,Calm,-,N/A,,Clear,0,2012-10-04 11:15:00
6:35 AM,59.4,58.1,96,30.10,10.0,Calm,Calm,-,N/A,,Clear,0,2012-10-04 11:35:00
6:55 AM,59.5,58.3,96,30.10,10.0,Calm,Calm,-,N/A,,Clear,0,2012-10-04 11:55:00
7:15 AM,58.6,57.7,97,30.11,7.0,Calm,Calm,-,N/A,,Clear,0,2012-10-04 12:15:00
7:35 AM,58.8,57.7,96,30.11,10.0,Calm,Calm,-,N/A,,Clear,0,2012-10-04 12:35:00
7:55 AM,59.7,58.5,96,30.11,10.0,Calm,Calm,-,N/A,,Clear,0,2012-10-04 12:55:00
8:15 AM,61.5,59.9,94,30.12,10.0,SE,3.5,-,N/A,,Clear,130,2012-10-04 13:15:00
8:35 AM,63.5,61.0,91,30.12,10.0,SE,3.5,-,N/A,,Clear,130,2012-10-04 13:35:00
8:55 AM,65.7,61.7,87,30.12,10.0,SSE,4.6,-,N/A,,Clear,150,2012-10-04 13:55:00
9:15 AM,68.0,61.9,81,30.13,10.0,SE,6.9,-,N/A,,Clear,140,2012-10-04 14:15:00
9:35 AM,69.6,62.2,77,30.14,10.0,SE,4.6,-,N/A,,Clear,140,2012-10-04 14:35:00
9:55 AM,71.6,62.6,73,30.14,10.0,SSE,6.9,-,N/A,,Clear,150,2012-10-04 14:55:00
10:15 AM,73.2,62.4,69,30.14,10.0,SE,5.8,-,N/A,,Scattered Clouds,140,2012-10-04 15:15:00
10:35 AM,75.0,62.1,64,30.14,10.0,SSE,8.1,-,N/A,,Overcast,150,2012-10-04 15:35:00
10:55 AM,76.8,61.9,60,30.14,10.0,SE,8.1,-,N/A,,Scattered Clouds,130,2012-10-04 15:55:00
11:15 AM,77.9,62.2,58,30.13,10.0,SE,10.4,-,N/A,,Clear,140,2012-10-04 16:15:00
11:35 AM,78.6,63.1,59,30.13,10.0,SE,9.2,16.1,N/A,,Clear,140,2012-10-04 16:35:00
11:55 AM,79.3,63.7,59,30.13,10.0,SSE,9.2,-,N/A,,Clear,150,2012-10-04 16:55:00
12:15 PM,80.4,63.9,57,30.12,10.0,SE,12.7,18.4,N/A,,Clear,140,2012-10-04 17:15:00
12:35 PM,81.1,64.4,57,30.13,10.0,ESE,6.9,-,N/A,,Clear,120,2012-10-04 17:35:00
12:55 PM,81.7,64.4,56,30.12,10.0,SE,9.2,17.3,N/A,,Clear,130,2012-10-04 17:55:00
1:35 PM,82.8,64.8,54,30.11,10.0,SSE,10.4,-,N/A,,Clear,150,2012-10-04 18:35:00
1:55 PM,83.1,64.9,54,30.11,10.0,SSE,9.2,-,N/A,,Clear,150,2012-10-04 18:55:00
2:15 PM,83.7,64.8,53,30.10,10.0,South,6.9,16.1,N/A,,Clear,170,2012-10-04 19:15:00
2:35 PM,83.8,64.4,52,30.09,10.0,ESE,11.5,-,N/A,,Clear,120,2012-10-04 19:35:00
2:55 PM,84.2,63.9,50,30.09,10.0,SE,6.9,16.1,N/A,,Clear,140,2012-10-04 19:55:00
3:15 PM,84.6,64.2,50,30.08,10.0,SE,8.1,-,N/A,,Clear,140,2012-10-04 20:15:00
3:35 PM,85.1,64.0,49,30.08,10.0,SSE,8.1,-,N/A,,Clear,150,2012-10-04 20:35:00
3:55 PM,85.1,63.7,49,30.07,0.5,SSE,9.2,-,N/A,,Haze,150,2012-10-04 20:55:00
4:15 PM,85.1,62.6,47,30.07,5.0,SSE,8.1,-,N/A,,Haze,150,2012-10-04 21:15:00
4:35 PM,84.9,62.6,47,30.07,2.0,SSE,9.2,16.1,N/A,,Haze,160,2012-10-04 21:35:00
4:55 PM,84.7,62.8,48,30.07,10.0,SE,8.1,17.3,N/A,,Clear,140,2012-10-04 21:55:00
5:15 PM,84.4,63.0,48,30.07,10.0,SSE,8.1,-,N/A,,Clear,150,2012-10-04 22:15:00
5:35 PM,84.2,63.1,49,30.06,10.0,SE,9.2,16.1,N/A,,Clear,140,2012-10-04 22:35:00
5:55 PM,83.5,63.0,50,30.06,10.0,SE,8.1,-,N/A,,Clear,130,2012-10-04 22:55:00
6:15 PM,82.6,63.1,52,30.06,10.0,SE,5.8,-,N/A,,Clear,140,2012-10-04 23:15:00
6:35 PM,81.3,62.8,53,30.07,10.0,SE,4.6,-,N/A,,Clear,140,2012-10-04 23:35:00
6:55 PM,79.7,62.6,56,30.07,10.0,SE,4.6,-,N/A,,Clear,130,2012-10-04 23:55:00
7:15 PM,78.6,62.2,57,30.07,10.0,SE,3.5,-,N/A,,Clear,130,2012-10-05 00:15:00
7:35 PM,77.4,62.2,59,30.08,10.0,Calm,Calm,-,N/A,,Scattered Clouds,0,2012-10-05 00:35:00
7:55 PM,76.5,62.2,61,30.08,10.0,Calm,Calm,-,N/A,,Mostly Cloudy,0,2012-10-05 00:55:00
8:15 PM,75.7,63.9,66,30.09,10.0,Calm,Calm,-,N/A,,Overcast,0,2012-10-05 01:15:00
8:35 PM,75.9,63.7,66,30.09,10.0,Calm,Calm,-,N/A,,Overcast,0,2012-10-05 01:35:00
8:55 PM,75.2,63.5,67,30.09,10.0,SE,3.5,-,N/A,,Overcast,130,2012-10-05 01:55:00
9:15 PM,74.5,62.8,67,30.09,10.0,SE,4.6,-,N/A,,Scattered Clouds,140,2012-10-05 02:15:00
9:35 PM,73.8,63.0,69,30.09,10.0,SE,4.6,-,N/A,,Clear,140,2012-10-05 02:35:00
9:55 PM,73.9,63.0,68,30.09,10.0,SE,3.5,-,N/A,,Clear,140,2012-10-05 02:55:00
10:15 PM,73.6,63.0,69,30.10,10.0,SE,3.5,-,N/A,,Clear,140,2012-10-05 03:15:00
10:35 PM,73.0,63.1,71,30.10,10.0,SE,3.5,-,N/A,,Clear,140,2012-10-05 03:35:00
10:55 PM,72.5,63.1,72,30.10,10.0,SSE,4.6,-,N/A,,Clear,150,2012-10-05 03:55:00
11:15 PM,72.1,63.5,74,30.10,10.0,SSE,5.8,-,N/A,,Clear,160,2012-10-05 04:15:00
11:35 PM,72.7,63.1,72,30.09,10.0,South,8.1,-,N/A,,Clear,170,2012-10-05 04:35:00
11:55 PM,73.2,63.3,71,30.09,10.0,South,9.2,-,N/A,,Clear,170,2012-10-05 04:55:00